N9OJR Weather Reports


time (UTC)temp
C
wind
direction
speed
KPH
gust
KPH
rain 1hr
cm
rain 24hr
cm
rain mn
cm
humidity
%
barometer
mb
20260504002601 12 168 0.0 3.2 0.00 0.00 0.00 53 1008.8
20260504002059 12 259 0.0 1.6 0.00 0.00 0.00 53 1008.9
20260504001556 12 280 3.2 3.2 0.00 0.00 0.00 52 1009.0
20260504001052 12 271 1.6 3.2 0.00 0.00 0.00 51 1008.9
20260504000549 12 265 0.0 1.6 0.00 0.00 0.00 52 1008.9
20260504000047 12 189 3.2 4.8 0.00 0.00 0.00 52 1008.9
20260503235545 13 257 0.0 8.0 0.00 0.00 0.00 50 1009.1
20260503235042 13 94 3.2 4.8 0.00 0.00 0.00 51 1009.2
20260503234539 13 287 1.6 1.6 0.00 0.00 0.00 50 1009.2
20260503234037 13 263 1.6 1.6 0.00 0.00 0.00 49 1009.2
20260503233533 13 212 1.6 4.8 0.00 0.00 0.00 49 1009.0
20260503233029 13 225 1.6 3.2 0.00 0.00 0.00 49 1009.0
20260503232527 13 251 0.0 3.2 0.00 0.00 0.00 49 1009.2
20260503232024 13 263 1.6 8.0 0.00 0.00 0.00 48 1009.3
20260503231522 13 312 4.8 8.0 0.00 0.00 0.00 48 1009.1
20260503231018 13 248 3.2 4.8 0.00 0.00 0.00 48 1009.3
20260503230515 13 298 1.6 3.2 0.00 0.00 0.00 49 1009.2
20260503230013 13 182 1.6 1.6 0.00 0.00 0.00 49 1009.2
20260503225509 13 176 3.2 4.8 0.00 0.00 0.00 47 1009.2
20260503225004 14 242 1.6 11.3 0.00 0.00 0.00 46 1009.3
20260503224502 14 158 3.2 9.7 0.00 0.00 0.00 46 1009.3
20260503224000 13 302 1.6 11.3 0.00 0.00 0.00 47 1009.6
20260503223457 13 119 3.2 14.5 0.00 0.00 0.00 48 1009.3
20260503222952 13 358 8.0 11.3 0.00 0.00 0.00 47 1009.5
20260503222451 13 149 3.2 9.7 0.00 0.00 0.00 47 1009.6
20260503221949 13 112 1.6 12.9 0.00 0.00 0.00 47 1009.6
20260503221447 14 325 3.2 8.0 0.00 0.00 0.00 47 1009.6
20260503220944 15 228 3.2 3.2 0.00 0.00 0.00 47 1009.5
20260503220440 15 140 1.6 8.0 0.00 0.00 0.00 47 1009.7
20260503215937 15 234 3.2 9.7 0.00 0.00 0.00 45 1009.5
20260503215434 15 284 3.2 9.7 0.00 0.00 0.00 47 1009.5
20260503214932 15 317 4.8 16.1 0.00 0.00 0.00 44 1009.5
20260503214429 15 291 3.2 8.0 0.00 0.00 0.00 44 1009.3
20260503213926 15 125 1.6 8.0 0.00 0.00 0.00 46 1009.5
20260503213425 15 113 3.2 8.0 0.00 0.00 0.00 44 1009.6
20260503212920 15 37 4.8 8.0 0.00 0.00 0.00 47 1009.4
20260503212418 15 193 4.8 8.0 0.00 0.00 0.00 44 1009.4
20260503211915 15 61 4.8 8.0 0.00 0.00 0.00 45 1009.5
20260503211412 15 281 4.8 9.7 0.00 0.00 0.00 43 1009.5
20260503210907 15 301 3.2 4.8 0.00 0.00 0.00 46 1009.6
20260503210405 15 77 3.2 12.9 0.00 0.00 0.00 44 1009.5
20260503205859 15 329 1.6 9.7 0.00 0.00 0.00 44 1009.7
20260503205356 15 266 1.6 8.0 0.00 0.00 0.00 46 1009.8
20260503204853 15 341 3.2 12.9 0.00 0.00 0.00 43 1009.5
20260503204350 15 161 4.8 12.9 0.00 0.00 0.00 44 1009.6
20260503203847 15 332 4.8 9.7 0.00 0.00 0.00 45 1009.6
20260503203344 15 295 4.8 8.0 0.00 0.00 0.00 44 1009.7
20260503202841 15 300 6.4 12.9 0.00 0.00 0.00 43 1009.8
20260503202339 16 297 6.4 12.9 0.00 0.00 0.00 42 1009.8
20260503201838 16 130 4.8 14.5 0.00 0.00 0.00 45 1010.0
20260503201334 15 279 0.0 4.8 0.00 0.00 0.00 47 1009.7
20260503200832 15 213 4.8 11.3 0.00 0.00 0.00 45 1010.0
20260503200327 15 274 1.6 4.8 0.00 0.00 0.00 45 1009.8
20260503195825 15 258 3.2 9.7 0.00 0.00 0.00 43 1010.2
20260503195321 15 253 1.6 11.3 0.00 0.00 0.00 45 1010.1
20260503194819 15 13 6.4 12.9 0.00 0.00 0.00 45 1010.3
20260503194314 15 242 4.8 9.7 0.00 0.00 0.00 46 1010.5
20260503193811 15 347 1.6 4.8 0.00 0.00 0.00 46 1010.7
20260503193307 16 308 3.2 11.3 0.00 0.00 0.00 43 1010.2
20260503192803 15 57 6.4 9.7 0.00 0.00 0.00 44 1010.7
20260503192258 15 92 1.6 3.2 0.00 0.00 0.00 46 1011.0
20260503191755 15 306 6.4 9.7 0.00 0.00 0.00 43 1010.9
20260503191252 15 256 1.6 3.2 0.00 0.00 0.00 43 1010.8
20260503190749 15 166 3.2 8.0 0.00 0.00 0.00 48 1011.1
20260503190246 15 306 8.0 11.3 0.00 0.00 0.00 45 1011.1
20260503185743 15 187 4.8 11.3 0.00 0.00 0.00 44 1011.2
20260503185238 16 202 1.6 11.3 0.00 0.00 0.00 45 1011.1
20260503184733 15 307 3.2 9.7 0.00 0.00 0.00 48 1011.3
20260503184230 15 0 3.2 12.9 0.00 0.00 0.00 45 1011.3
20260503183726 15 0 4.8 9.7 0.00 0.00 0.00 45 1011.5
20260503183223 15 103 4.8 12.9 0.00 0.00 0.00 43 1011.4
20260503182721 15 17 4.8 9.7 0.00 0.00 0.00 44 1011.6
20260503182220 15 245 1.6 9.7 0.00 0.00 0.00 44 1011.6
20260503181716 15 291 3.2 12.9 0.00 0.00 0.00 43 1011.8
20260503181213 16 94 6.4 9.7 0.00 0.00 0.00 47 1011.5
20260503180709 15 67 3.2 9.7 0.00 0.00 0.00 49 1011.5
20260503180208 15 222 1.6 17.7 0.00 0.00 0.00 46 1011.5
20260503175704 15 291 4.8 8.0 0.00 0.00 0.00 43 1011.7
20260503175202 15 196 0.0 9.7 0.00 0.00 0.00 47 1011.7
20260503174658 15 250 4.8 8.0 0.00 0.00 0.00 46 1012.0
20260503174156 15 320 6.4 9.7 0.00 0.00 0.00 47 1012.0
20260503173651 15 215 1.6 8.0 0.00 0.00 0.00 51 1011.7
20260503173147 14 202 3.2 8.0 0.00 0.00 0.00 48 1011.9
20260503172644 15 263 1.6 4.8 0.00 0.00 0.00 47 1012.0
20260503172141 14 134 4.8 11.3 0.00 0.00 0.00 47 1012.1
20260503171637 14 325 9.7 11.3 0.00 0.00 0.00 46 1012.0
20260503171135 15 281 1.6 9.7 0.00 0.00 0.00 47 1012.1
20260503170632 14 288 3.2 12.9 0.00 0.00 0.00 48 1012.2
20260503170129 15 213 4.8 16.1 0.00 0.00 0.00 47 1012.4
20260503150520 11 259 0.0 4.8 0.00 0.00 0.00 58 1013.2
20260503131413 7 222 1.6 3.2 0.00 0.00 0.00 67 1013.8
20260503130910 7 288 0.0 3.2 0.00 0.00 0.00 66 1013.9
20260503130408 7 312 3.2 3.2 0.00 0.00 0.00 66 1013.9
20260503110811 0 264 0.0 0.0 0.00 0.00 0.00 99 1013.1
20260503110308 0 264 0.0 0.0 0.00 0.00 0.00 99 1013.2
20260503100234 -1 268 0.0 0.0 0.00 0.00 0.00 99 1012.8
20260503090159 -1 268 0.0 0.0 0.00 0.00 0.00 99 1013.0
20260503081636 -1 268 0.0 0.0 0.00 0.00 0.00 99 1012.8
20260503081132 0 268 0.0 0.0 0.00 0.00 0.00 99 1013.1
20260503080628 -1 268 0.0 0.0 0.00 0.00 0.00 99 1012.8
20260503080125 -1 268 0.0 0.0 0.00 0.00 0.00 99 1012.9
20260503072602 0 268 0.0 0.0 0.00 0.00 0.00 98 1012.8
20260503072059 0 268 0.0 0.0 0.00 0.00 0.00 97 1012.9
20260503071556 0 268 0.0 0.0 0.00 0.00 0.00 97 1012.9
20260503071053 0 268 0.0 0.0 0.00 0.00 0.00 97 1013.1
20260503070549 0 268 0.0 0.0 0.00 0.00 0.00 97 1013.0
20260503055003 2 286 0.0 0.0 0.00 0.00 0.00 90 1012.9
20260503054458 2 281 0.0 0.0 0.00 0.00 0.00 89 1013.1
20260503053956 2 265 0.0 0.0 0.00 0.00 0.00 89 1013.2
20260503053454 2 276 0.0 0.0 0.00 0.00 0.00 88 1013.2
20260503052950 2 254 0.0 1.6 0.00 0.00 0.00 87 1013.1
20260503052448 3 273 0.0 0.0 0.00 0.00 0.00 86 1013.2
20260503051944 3 280 0.0 1.6 0.00 0.00 0.00 86 1013.0
20260503051440 3 274 0.0 1.6 0.00 0.00 0.00 85 1013.1
20260503050938 3 223 0.0 1.6 0.00 0.00 0.00 85 1013.0
20260503050433 3 284 0.0 1.6 0.00 0.00 0.00 86 1013.1
20260503045931 3 327 0.0 1.6 0.00 0.00 0.00 86 1013.2
20260503045429 3 272 0.0 0.0 0.00 0.00 0.00 86 1013.2
20260503044925 3 276 0.0 1.6 0.00 0.00 0.00 86 1013.1
20260503044422 3 269 0.0 0.0 0.00 0.00 0.00 86 1013.1
20260503043920 3 283 0.0 1.6 0.00 0.00 0.00 86 1013.2
20260503043416 3 224 1.6 1.6 0.00 0.00 0.00 86 1013.1
20260503042912 3 296 0.0 0.0 0.00 0.00 0.00 86 1013.1
20260503042409 3 279 0.0 0.0 0.00 0.00 0.00 87 1013.1
20260503041905 3 294 0.0 0.0 0.00 0.00 0.00 87 1013.1
20260503041402 3 293 0.0 0.0 0.00 0.00 0.00 87 1013.3
20260503040900 3 293 0.0 0.0 0.00 0.00 0.00 88 1013.3
20260503040357 3 294 0.0 0.0 0.00 0.00 0.00 88 1013.3
20260503035854 3 294 0.0 0.0 0.00 0.00 0.00 89 1013.2
20260503035351 3 295 0.0 0.0 0.00 0.00 0.00 89 1013.3
20260503034848 3 294 0.0 0.0 0.00 0.00 0.00 89 1013.3
20260503034346 3 294 0.0 0.0 0.00 0.00 0.00 89 1013.2
20260503033843 3 294 0.0 0.0 0.00 0.00 0.00 89 1013.3
20260503033340 3 294 0.0 0.0 0.00 0.00 0.00 89 1013.5
20260503032838 3 295 0.0 0.0 0.00 0.00 0.00 88 1013.4
20260503032337 3 295 0.0 0.0 0.00 0.00 0.00 88 1013.4
20260503031834 3 295 0.0 0.0 0.00 0.00 0.00 87 1013.4
20260503031332 3 295 0.0 0.0 0.00 0.00 0.00 87 1013.4
20260503030828 3 295 0.0 0.0 0.00 0.00 0.00 87 1013.2
20260503030324 3 295 0.0 0.0 0.00 0.00 0.00 86 1013.7
20260503025821 3 295 0.0 0.0 0.00 0.00 0.00 86 1013.3
20260503025319 3 295 0.0 0.0 0.00 0.00 0.00 86 1013.5
20260503024815 3 295 0.0 0.0 0.00 0.00 0.00 87 1013.7
20260503024312 3 295 0.0 0.0 0.00 0.00 0.00 86 1013.5
20260503023809 3 295 0.0 0.0 0.00 0.00 0.00 86 1013.9
20260503023307 3 295 0.0 0.0 0.00 0.00 0.00 86 1013.8
20260503022803 3 295 0.0 0.0 0.00 0.00 0.00 87 1013.8
20260503022304 3 295 0.0 0.0 0.00 0.00 0.00 87 1013.9
20260503021759 3 295 0.0 0.0 0.00 0.00 0.00 86 1013.7
20260503021255 3 295 0.0 0.0 0.00 0.00 0.00 86 1013.8
20260503020753 3 295 0.0 0.0 0.00 0.00 0.00 86 1013.7
20260503020251 3 295 0.0 0.0 0.00 0.00 0.00 86 1013.8
20260503015747 3 295 0.0 0.0 0.00 0.00 0.00 86 1013.9
20260503015244 3 295 0.0 0.0 0.00 0.00 0.00 86 1013.5
20260503014739 3 295 0.0 0.0 0.00 0.00 0.00 86 1013.4
20260503014238 3 295 0.0 0.0 0.00 0.00 0.00 85 1013.7
20260503013735 3 295 0.0 0.0 0.00 0.00 0.00 84 1013.7
20260503013232 3 295 0.0 0.0 0.00 0.00 0.00 84 1013.7
20260503012730 3 295 0.0 0.0 0.00 0.00 0.00 84 1013.5
20260503012226 3 295 0.0 0.0 0.00 0.00 0.00 83 1013.5
20260503011723 3 295 0.0 0.0 0.00 0.00 0.00 83 1013.8
20260503011220 3 295 0.0 0.0 0.00 0.00 0.00 82 1013.5
20260503010716 3 295 0.0 0.0 0.00 0.00 0.00 80 1013.3
20260503010213 3 295 0.0 0.0 0.00 0.00 0.00 79 1013.4
20260503005711 3 295 0.0 0.0 0.00 0.00 0.00 79 1013.4
20260503005208 4 295 0.0 0.0 0.00 0.00 0.00 78 1013.4
20260503004704 4 295 0.0 0.0 0.00 0.00 0.00 77 1013.4
20260503004203 4 295 0.0 0.0 0.00 0.00 0.00 76 1013.4
20260503003659 4 295 0.0 0.0 0.00 0.00 0.00 78 1013.3
20260503003156 4 295 0.0 0.0 0.00 0.00 0.00 78 1013.4